Probability
0 0 0 0 0 0 0 0 0 0 0 0 0 0 0 0 0 0 1 3 5 6 6 5 2 1 1 1 0 0 0 0 0 1 2 1 1 2 2 1 0 0 0
0 0 0 0 0 0 0 0 0 0 0 0 0 0 0 0 0 0 1 2 4 5 6 5 3 2 2 1 0 0 0 0 0 1 2 1 1 3 2 1 0 0 0
0 0 0 0 0 0 0 0 0 0 0 0 0 0 0 0 0 0 0 1 2 2 4 4 2 1 1 1 0 0 0 1 1 2 3 3 3 3 3 1 0 0 0
0 0 0 0 0 0 0 0 0 0 0 0 0 0 0 0 0 0 0 0 0 1 1 1 0 0 0 0 0 0 1 2 3 3 3 3 3 3 3 2 1 0 0
0 0 0 0 0 0 0 0 0 0 0 0 0 0 0 0 0 0 0 0 0 0 0 0 0 0 1 1 1 0 1 2 4 4 4 3 3 3 3 2 1 0 0
0 0 0 0 0 0 0 0 0 0 0 0 0 0 0 0 0 0 0 0 0 0 0 0 0 0 1 2 2 1 1 2 3 4 5 4 3 3 2 1 1 0 0
0 0 0 0 0 0 0 0 0 0 0 0 0 0 0 0 0 0 0 0 0 0 0 0 0 0 1 1 2 2 1 1 3 4 5 5 3 2 1 0 0 0 0
2 2 2 1 1 1 0 0 0 0 0 0 0 0 0 0 0 0 0 0 0 0 0 0 0 0 0 0 1 1 1 1 2 3 5 4 2 1 0 0 0 0 0
3 4 5 4 2 1 0 0 0 1 0 0 0 0 0 0 0 0 0 0 0 0 0 0 0 0 0 0 0 0 0 0 1 2 3 3 2 0 0 0 0 0 0
2 3 4 4 2 0 0 0 0 0 0 0 0 0 0 0 0 0 0 0 0 0 0 0 0 0 0 0 0 0 0 0 0 1 1 1 1 0 0 0 0 0 0
0 1 1 1 0 0 0 0 0 0 0 0 0 0 0 0 0 0 0 0 0 0 0 0 0 0 0 0 0 0 0 0 0 0 0 0 0 0 0 0 0 0 0
1 1 0 0 0 0 0 0 0 0 0 0 0 0 0 0 0 0 0 0 0 0 0 0 0 0 0 0 0 0 0 0 0 0 0 0 0 0 0 0 0 0 0
2 2 1 0 0 0 0 0 0 0 0 0 0 0 0 0 0 0 0 0 0 0 0 0 0 0 0 0 0 0 0 0 0 0 0 0 0 0 0 0 1 0 0
2 2 1 0 0 0 0 0 0 0 0 0 0 0 0 0 0 0 0 0 0 0 0 0 0 0 0 0 0 0 0 0 0 0 0 0 0 0 0 0 0 0 0
2 1 1 2 1 1 0 0 0 0 0 0 0 0 0 0 0 0 0 0 0 0 0 0 0 0 0 0 0 0 0 0 0 0 0 0 0 0 0 0 0 0 0
2 2 3 3 3 2 1 1 1 1 0 0 0 0 0 0 0 0 0 1 1 1 1 0 0 0 0 0 0 0 0 0 0 0 0 0 0 0 0 0 0 0 0
3 3 3 3 4 4 3 2 2 1 0 0 0 0 1 1 0 0 0 1 2 2 1 0 0 0 0 0 0 0 0 0 0 0 0 0 0 0 0 0 0 0 0
4 4 4 4 4 4 3 3 2 1 0 0 1 1 2 1 0 0 0 1 2 2 1 0 0 0 0 0 0 0 0 0 0 0 0 0 0 0 0 0 0 0 0
4 5 5 5 5 4 3 3 1 0 0 1 2 2 2 1 0 0 0 1 3 3 1 0 0 0 0 0 0 0 0 0 0 0 0 0 0 0 0 0 0 0 0
4 5 6 6 5 4 4 2 1 1 1 1 2 2 1 0 0 1 2 4 6 5 2 0 0 0 0 0 0 0 0 0 0 0 0 0 0 0 0 0 0 0 0
6 5 5 4 4 4 4 2 2 2 2 1 1 1 0 0 0 1 3 5 7 6 3 1 0 0 0 0 0 0 0 0 0 0 0 0 0 0 0 0 0 0 0
7 6 5 4 3 3 3 3 3 4 3 3 3 2 1 1 1 1 2 3 5 5 2 1 0 0 0 0 0 0 0 0 0 0 0 0 0 0 1 1 1 0 0
9 8 7 6 5 4 3 3 3 4 3 3 4 4 3 3 3 3 2 1 2 2 1 0 0 0 0 0 0 0 0 0 0 0 0 0 0 0 1 1 1 0 0
12 11 10 9 8 6 4 3 3 3 3 3 3 4 4 4 3 4 3 2 0 0 0 0 0 0 0 0 0 0 0 0 0 0 0 0 0 0 0 0 0 0 0
13 13 12 12 10 7 4 3 2 2 2 3 3 4 4 3 3 2 2 1 0 0 0 0 0 0 0 0 0 0 0 0 0 0 0 0 0 0 0 0 0 0 0
13 13 13 13 12 7 4 3 3 2 2 2 4 4 4 3 2 1 1 0 0 0 0 0 0 0 0 0 0 0 0 0 0 0 0 0 0 0 0 0 0 0 0
Wind_Speed
2 2 2 2 2 2 2 2 2 2 1 2 2 2 3 3 3 2 2 6 7 7 7 8 8 8 8 8 7 7 7 7 7 8 8 8 8 8 9 9 9 9 9
2 2 1 1 1 1 1 1 1 2 1 1 2 2 2 2 2 2 2 3 5 6 6 6 7 7 7 7 7 6 6 6 6 7 7 7 7 7 8 8 9 9 8
2 2 1 1 1 1 2 2 2 2 2 2 2 2 2 2 2 2 2 1 2 4 5 6 6 6 6 6 6 6 7 6 6 7 7 6 6 6 7 7 8 8 8
2 2 1 1 1 1 2 2 2 2 2 2 2 2 2 2 2 2 1 1 1 1 3 5 5 6 6 6 6 6 6 7 7 7 7 7 6 6 6 7 7 7 8
2 2 1 1 1 1 1 2 2 2 2 2 2 2 2 1 1 2 2 1 1 1 1 1 3 4 6 6 6 6 6 6 6 7 7 7 7 6 6 6 6 6 7
1 2 2 1 2 2 1 2 2 2 2 2 2 3 2 2 1 1 1 1 1 1 1 1 1 1 2 3 4 5 5 5 5 6 7 7 7 7 6 6 6 7 7
2 2 2 1 1 1 1 2 2 2 2 2 2 2 2 2 2 1 1 1 0 1 1 1 0 0 1 1 2 3 4 4 4 4 4 5 6 6 6 6 6 6 6
1 1 2 1 1 1 2 2 2 2 1 1 2 2 1 2 2 2 1 1 0 0 0 1 1 0 1 1 1 1 2 2 3 3 3 4 5 5 5 5 6 6 6
1 1 1 1 1 1 1 1 1 2 1 1 1 2 2 1 1 2 2 1 1 1 0 0 1 0 0 1 1 1 1 1 2 3 3 3 3 4 4 5 5 5 5
1 1 1 1 1 1 1 1 1 1 2 1 0 1 1 2 2 0 1 1 1 0 1 1 1 1 0 1 0 0 0 1 1 2 2 2 2 2 3 3 3 4 4
1 1 1 1 1 1 1 1 1 1 1 2 1 1 1 1 1 2 1 0 1 1 0 1 0 0 1 1 1 1 1 1 2 1 0 1 0 1 1 2 3 3 3
1 1 0 1 1 1 1 1 1 2 1 2 1 1 2 2 2 2 2 1 1 1 0 0 0 1 0 0 1 2 2 3 3 3 3 3 2 2 2 1 0 1 2
1 1 1 0 0 0 1 1 1 1 1 1 1 1 1 1 2 2 2 1 1 1 1 0 1 1 1 1 1 3 4 4 4 4 4 5 5 4 4 3 3 3 2
1 1 1 1 1 1 1 1 1 1 1 1 1 1 1 1 2 2 3 3 1 1 1 2 0 1 1 1 2 2 2 4 4 4 5 5 6 6 6 6 6 5 5
0 1 1 1 1 1 1 1 1 0 1 0 1 1 1 1 1 2 2 3 3 2 1 1 1 0 1 1 2 2 2 4 5 5 5 6 6 6 6 7 7 6 6
0 1 1 1 1 1 1 1 1 1 1 0 0 0 0 0 0 1 2 2 2 3 2 1 1 1 1 2 3 2 2 4 5 5 5 6 6 6 6 6 6 6 6
1 1 1 1 1 2 1 1 1 1 1 1 1 0 0 1 1 1 1 1 2 2 2 0 1 1 1 2 2 2 3 2 3 5 6 6 6 6 6 6 6 6 6
2 2 2 2 2 2 2 2 1 1 1 1 1 1 1 1 1 1 1 1 2 2 3 2 1 1 1 1 2 2 2 2 2 4 5 5 5 5 6 6 5 5 5
2 2 2 2 1 2 2 2 2 2 2 1 1 1 1 2 1 1 1 1 1 2 2 2 1 1 1 2 2 2 2 2 2 3 4 4 5 5 5 5 4 4 4
2 2 1 1 1 2 2 2 2 2 2 2 2 2 2 2 1 1 1 1 2 2 3 3 2 1 1 1 2 2 1 1 1 1 3 3 4 4 4 4 4 4 4
2 2 2 2 2 2 1 1 1 2 2 2 3 2 2 3 3 2 1 2 2 2 2 2 2 1 1 1 1 1 2 1 1 1 1 1 1 1 2 2 2 3 3
2 3 2 2 2 1 2 3 2 2 2 2 2 2 3 3 4 4 4 4 4 3 3 2 2 2 1 2 1 2 2 1 1 0 1 0 1 0 1 1 2 3 3
3 2 2 2 1 1 2 3 3 2 3 2 2 2 2 2 3 3 4 6 5 5 3 3 2 1 1 1 2 2 2 2 1 1 1 0 0 0 1 1 2 2 2
3 2 2 2 1 1 2 3 3 3 3 2 2 2 1 2 2 2 3 4 4 3 3 2 2 1 1 1 2 3 3 2 1 1 1 0 0 1 1 1 1 2 1
3 2 2 2 1 1 1 3 3 2 2 3 3 3 2 2 3 3 4 3 3 3 4 5 4 4 4 4 3 2 2 2 1 0 1 1 0 0 0 0 0 1 1
3 3 2 2 1 1 2 3 3 2 2 2 2 3 4 3 3 3 3 3 2 1 2 3 4 4 4 4 4 2 2 1 1 0 1 1 1 1 0 0 1 1 0
Wind_Direction
67 62 59 63 65 69 73 73 75 78 78 80 106 137 154 163 167 170 186 194 196 197 192 189 191 193 196 198 200 202 204 205 203 205 208 209 210 209 207 206 208 211 209
93 82 73 75 77 87 96 98 96 90 80 82 79 103 131 142 152 167 182 193 195 191 187 186 191 196 198 200 204 207 208 211 211 209 209 211 215 217 213 211 213 214 212
126 127 114 94 91 98 102 95 84 85 93 93 81 89 113 125 139 157 168 177 193 198 195 195 199 202 205 207 211 212 211 208 211 213 212 214 218 218 216 218 218 214 209
138 137 127 111 96 103 105 107 99 91 84 87 77 63 87 110 133 143 146 156 178 194 206 210 211 211 215 222 223 222 218 213 213 215 216 216 218 218 219 224 224 216 210
123 132 131 111 93 95 99 116 104 111 105 96 89 69 68 81 110 134 139 150 159 178 192 214 222 225 228 228 230 229 226 222 220 219 218 220 223 222 221 220 218 216 214
104 113 108 87 85 93 86 95 106 97 107 115 90 67 52 52 76 102 145 145 162 199 202 216 266 279 254 236 233 230 232 227 226 226 227 227 227 228 223 219 219 220 221
99 103 100 97 101 114 122 117 116 110 103 107 89 61 33 44 62 62 102 118 131 214 182 181 208 352 337 339 276 246 240 233 229 225 227 230 233 233 225 220 220 219 217
94 123 122 123 119 118 107 118 131 131 135 136 128 108 37 12 26 35 65 118 125 115 148 159 117 103 316 317 352 307 267 250 237 236 234 241 238 229 224 226 222 222 224
63 84 106 114 115 119 128 130 140 142 153 141 140 151 150 199 7 17 28 49 75 96 223 135 153 187 220 278 283 323 318 327 286 266 256 251 245 236 227 234 234 235 228
65 86 101 113 123 123 137 183 139 146 148 164 137 136 152 155 148 81 19 34 47 155 241 232 197 177 201 235 240 64 40 354 308 287 285 286 259 235 223 225 231 236 230
32 45 102 120 139 143 157 143 118 135 149 164 173 155 131 113 130 151 196 342 18 17 325 254 241 184 171 184 196 102 90 70 54 42 24 16 115 188 209 223 231 237 241
6 7 74 134 160 163 170 165 155 155 174 173 172 166 169 164 172 159 175 201 255 307 319 246 247 247 189 174 145 94 92 81 73 66 62 61 70 82 82 81 310 261 261
352 340 14 56 142 193 169 150 146 161 177 171 182 188 184 182 157 153 153 172 209 274 288 270 245 224 189 137 96 85 87 90 85 80 75 72 73 72 70 66 59 50 35
249 329 31 37 35 52 90 119 123 172 155 187 205 180 165 180 174 174 169 161 166 245 277 264 272 203 148 122 92 94 91 94 93 88 81 76 74 70 66 62 58 54 52
174 43 63 55 40 47 56 93 90 125 125 177 208 186 180 201 181 189 177 173 169 195 256 253 208 142 149 124 105 113 102 94 96 89 84 80 78 75 70 65 60 56 55
107 90 73 64 51 45 50 82 71 29 60 337 197 141 204 241 129 151 172 186 182 179 209 246 193 147 137 124 108 108 100 94 93 93 89 85 83 78 73 69 63 57 53
123 113 108 89 68 49 46 72 54 44 40 354 351 77 356 68 96 98 138 155 162 162 177 203 98 92 117 120 100 98 93 88 83 83 82 79 77 74 68 64 58 54 50
106 111 107 95 79 58 53 63 54 52 58 24 3 39 22 66 78 83 110 133 148 164 166 169 113 88 99 118 109 107 96 98 89 81 82 80 77 73 67 62 55 52 48
104 101 102 97 77 65 63 61 69 64 65 46 30 43 30 76 71 79 99 110 123 131 136 145 128 92 85 92 96 91 87 71 85 93 92 82 78 72 68 63 57 53 51
124 124 115 104 86 75 66 63 76 66 56 44 35 39 44 70 67 78 90 94 108 114 123 125 119 104 95 89 113 125 109 76 65 71 71 74 67 66 63 64 60 58 55
135 128 110 93 83 86 66 77 84 78 65 49 38 35 47 64 62 70 96 111 117 113 116 119 120 115 119 122 158 163 153 123 85 68 76 61 62 48 37 46 58 63 64
119 109 108 106 93 85 68 89 106 81 72 62 44 30 36 45 57 63 74 86 110 127 140 135 142 158 186 188 164 156 143 142 179 146 173 9 69 37 347 15 61 78 72
127 120 122 119 118 77 80 89 92 89 73 58 44 35 32 41 58 63 67 71 73 81 109 142 148 178 188 199 170 162 166 172 184 148 160 160 60 296 310 40 83 90 90
137 142 136 136 127 78 95 107 104 90 70 50 40 39 52 29 43 77 88 74 63 53 64 101 124 131 130 175 182 175 175 162 111 97 138 189 262 265 324 356 73 93 94
134 135 130 128 125 21 73 118 114 92 69 45 32 34 44 45 46 83 97 91 70 48 63 76 77 70 69 77 100 122 125 134 165 209 141 190 173 227 284 295 238 157 117
141 130 106 90 102 72 74 106 124 116 91 58 35 32 40 53 55 79 112 114 97 51 51 58 52 46 53 65 71 104 155 159 152 227 169 182 179 175 229 301 292 276 250